Resoconti di bolidi

Jul 01, 2020 - Jul 31, 2020
Trovati resoconti: 2610  in July 2020  Pagina 51 / 53
IDDate e tempo T.U. (Tempo Universale)Data e tempo localeRegioneCittàStatoDur.MagnitudineSuono differitoSuono contemporaneoFrag.OsservatoreLivello di esperienza
Evento 3226-2020
3226i2020-07-05 04:55 UT2020-07-04 21:55 PDTUS SausalitoCA≈1,5s -7---JamesP 4
3226j2020-07-05 04:55 UT2020-07-04 21:55 PDTUS LemooreCA≈3,5s -13---EugenioR 3
3226k2020-07-05 05:07 UT2020-07-04 22:07 PDTUS San DiegoCA≈3,5s -10--?SerenaG 2
3226l2020-07-05 04:30 UT2020-07-04 21:30 PDTUS Westlake VillageCA≈3,5s -20---AndrewB 1
3226m2020-07-05 04:50 UT2020-07-04 21:50 PDTUS EscondidoCA≈3,5s -18---BillyP 1
3226n2020-07-05 04:50 UT2020-07-04 21:50 PDTUS El CajonCA≈3,5s -22---RitaH 3
3226o2020-07-05 04:00 UT2020-07-04 21:00 PDTUS Yorba LindaCA≈7,5s -13---CynthiaP 1
Evento 3225-2020
3225a2020-07-05 03:15 UT2020-07-04 23:15 EDTUS SpringfieldOH≈20s -6---AylaH 2
Evento 3224-2020
3224a2020-07-05 01:47 UT2020-07-04 21:47 EDTUS ClermontFL≈20s -11---JonT 4
Evento 3223-2020
3223a2020-07-05 01:45 UT2020-07-04 21:45 EDTUS MashpeeMA≈7,5s -5---HectorM 1
3223b2020-07-05 02:00 UT2020-07-04 22:00 EDTUS HamptonNH≈20s -18--?JAMIEW 1
Evento 3222-2020
3222a2020-07-04 22:05 UT2020-07-05 00:05 CESTES PalmaBalearic Islands≈1,5s -6--NigelS 1
Evento 3221-2020
3221a2020-07-04 20:14 UT2020-07-04 22:14 CESTPL DobromierzLower Silesian Voivodeship≈3,5s -10---MarekK 4
Evento 3220-2020
3220a2020-07-04 05:28 UT2020-07-03 22:28 PDTUS Post FallsID≈20s -10--NicoleB 2
Evento 3219-2020
3219a2020-07-03 08:00 UT2020-07-03 03:00 CDTUS WichitaKS≈3,5s -7---MikeD 4
Evento 3216-2020
3216a2020-07-05 04:29 UT2020-07-05 01:29 -3 fusi orari BR São GonçaloRio de Janeiro<1s -16??-CristinaR 3
Evento 3215-2020
3215a2020-07-05 06:07 UT2020-07-05 03:07 -3 fusi orari BR Espírito Santo≈1,5s -13-ViniciusC 2
Evento 3214-2020
3214a2020-07-03 22:40 UT2020-07-03 18:40 -4 fusi orari BR Mato Grosso do Sul≈1,5s -13---ErnestoB 2
Evento 3213-2020
3213a2020-07-03 04:10 UT2020-07-03 00:10 EDTUS Ridley ParkPA≈1,5s -17---JasonG 3
Evento 3212-2020
3212a2020-07-04 07:38 UT2020-07-04 03:38 EDTUS WoodbineGA≈3,5s -14--?Desaray, Ruth, & LucianW 3
Evento 3211-2020
3211a2020-07-04 20:12 UT2020-07-04 22:12 CESTIT BolognaEmilia-Romagna≈1,5s -5--ELENAC 4
Evento 3210-2020
3210a2020-07-04 15:03 UT2020-07-05 01:03 AESTAU RandwickNew South Wales≈3,5s -13---AndriaC 1
Evento 3209-2020
3209a2020-07-04 03:50 UT2020-07-03 22:50 CDTUS WatertownSD<1s -13??-GaryW 1
Evento 3208-2020
3208a2020-07-04 03:20 UT2020-07-03 22:20 CDTUS WatertownSD<1s -13-??SandyP 2
Evento 3207-2020
3207a2020-07-04 02:00 UT2020-07-03 22:00 EDTUS GermantownOH≈7,5s -6??-EricG 1
3207b2020-07-04 02:00 UT2020-07-03 22:00 EDTUS MiamisburgOH≈3,5s -13--?NatalynneB 4
3207c2020-07-04 02:15 UT2020-07-03 22:15 EDTUS MiddletownOH≈20s -28---kimO 1
3207d2020-07-04 02:00 UT2020-07-03 22:00 EDTUS MasonOH≈20s -13---JOHNR 2
3207e2020-07-04 01:35 UT2020-07-03 21:35 EDTUS OH≈20s -12??AaronA 3
3207f2020-07-04 02:10 UT2020-07-03 22:10 EDTUS SpringboroOH≈7,5s -15--?RachelL 2
Evento 3206-2020
3206a2020-07-03 22:34 UT2020-07-04 01:34 EESTUA MyrhorodPoltavs'ka oblast<1s -20--Alexis V 2
Evento 3205-2020
3205a2020-07-03 22:30 UT2020-07-04 00:30 CESTDE Furtwangen im SchwarzwaldBaden-Württemberg≈3,5s -9--?AnnikaW 2
3205b2020-07-03 22:46 UT2020-07-04 00:46 CESTFR Basse-RentgenGrand Est≈1,5s -4---ClovisO 4
Evento 3204-2020
3204a2020-07-04 00:33 UT2020-07-03 21:33 -3 fusi orari BR São Paulo≈1,5s -4---Leo mF 4
Evento 3203-2020
3203a2020-07-03 17:02 UT2020-07-03 20:02 3 fusi orari QA DohaDoha≈1,5s -11--?CalD 2
Evento 3202-2020
3202a2020-07-03 12:20 UT2020-07-03 05:20 PDTUS Los AngelesCA≈1,5s -7--?DanaL 2
Evento 3201-2020
3201a2020-07-03 08:25 UT2020-07-03 04:25 EDTCA UtopiaOntario≈7,5s -16---RobR 4
Evento 3200-2020
3200a2020-07-03 06:55 UT2020-07-02 23:55 PDTUS Pismo BeachCA≈3,5s -7---RandyL 4
Evento 3199-2020
3199a2020-07-03 06:36 UT2020-07-03 01:36 CDTUS LebanonTN≈3,5s -11??-Jecka G 4
Evento 3198-2020
3198a2020-07-03 05:25 UT2020-07-03 00:25 CDTUS PeoriaIL≈1,5s -5--?JoshuaS 2
Evento 3197-2020
3197a2020-07-03 04:48 UT2020-07-02 21:48 PDTUS Moreno ValleyCA≈3,5s -5???DiannaA 1
3197b2020-07-03 06:14 UT2020-07-02 23:14 PDTUS Mission ViejoCA<1s -9---SeanG 4
Evento 3196-2020
3196a2020-07-03 03:29 UT2020-07-02 22:29 CDTUS TulsaOK≈3,5s -8--Mike W 4
Evento 3195-2020
3195a2020-07-03 03:23 UT2020-07-02 20:23 MSTUS GlendaleAZ≈1,5s -10---DavidB 3
Evento 3194-2020
3194a2020-07-03 02:12 UT2020-07-02 22:12 EDTUS ElversonPA≈7,5s -14DaveD 2
Evento 3193-2020
3193a2020-07-03 01:20 UT2020-07-02 21:20 EDTUS Green Cove SpringsFL≈1,5s -17---Lamar P 2
3193b2020-07-03 01:25 UT2020-07-02 21:25 EDTUS OrlandoFL≈1,5s -16---JaredJ 1
3193c2020-07-03 01:28 UT2020-07-02 21:28 EDTUS LongwoodFL≈3,5s -21-?JessiS 2
3193d2020-07-03 01:36 UT2020-07-02 21:36 EDTUS Azalea ParkFL≈1,5s -9--?JanR 1
3193e2020-07-03 01:34 UT2020-07-02 21:34 EDTUS EustisFL≈1,5s -13---CassandraD 3